GW0115 Weather Reports


time (UTC)temp
C
wind
direction
speed
KPH
gust
KPH
rain 1hr
cm
rain 24hr
cm
rain mn
cm
humidity
%
barometer
mb
20260504060108 8 0 0.0 8.0 0.00 0.00 0.00 73 1008.7
20260504044559 8 0 4.8 22.5 0.00 0.00 0.00 67 1008.8
20260504043055 8 258 1.6 12.9 0.00 0.00 0.00 63 1008.9
20260504041551 8 0 0.0 9.7 0.00 0.00 0.00 59 1008.8
20260504040105 8 0 0.0 1.6 0.00 0.00 0.00 57 1008.9
20260504034600 8 0 0.0 9.7 0.00 0.00 0.00 56 1009.0
20260504033126 6 0 0.0 0.0 0.00 0.00 0.00 66 1008.9
20260504031558 6 0 0.0 0.0 0.00 0.00 0.00 63 1008.9
20260504030056 5 0 0.0 0.0 0.00 0.00 0.00 63 1009.0
20260504024557 5 0 0.0 0.0 0.00 0.00 0.00 63 1008.9
20260504023104 5 0 0.0 0.0 0.00 0.00 0.00 63 1008.8
20260504021554 5 0 0.0 0.0 0.00 0.00 0.00 59 1009.0
20260504020057 5 0 0.0 0.0 0.00 0.00 0.00 61 1009.0
20260504014600 5 0 0.0 0.0 0.00 0.00 0.00 59 1009.1
20260504013109 5 0 0.0 0.0 0.00 0.00 0.00 58 1009.1
20260504011556 6 0 0.0 0.0 0.00 0.00 0.00 54 1008.9
20260504010104 6 0 0.0 0.0 0.00 0.00 0.00 53 1008.9
20260504004612 7 0 0.0 0.0 0.00 0.00 0.00 51 1008.7
20260504003059 7 0 0.0 0.0 0.00 0.00 0.00 48 1008.6
20260504001601 8 0 0.0 0.0 0.00 0.00 0.00 39 1008.4
20260504000052 9 0 0.0 0.0 0.00 0.00 0.00 40 1008.3
20260503234555 10 0 0.0 0.0 0.00 0.00 0.00 38 1008.1
20260503233050 10 0 0.0 6.4 0.00 0.00 0.00 38 1007.8
20260503231555 10 0 0.0 9.7 0.00 0.00 0.00 37 1007.5
20260503224552 10 0 0.0 0.0 0.00 0.00 0.00 39 1007.3
20260503223058 11 0 0.0 1.6 0.00 0.00 0.00 37 1007.3
20260503221554 11 0 0.0 11.3 0.00 0.00 0.00 36 1007.3
20260503220057 11 0 1.6 14.5 0.00 0.00 0.00 35 1007.3
20260503214551 11 0 0.0 11.3 0.00 0.00 0.00 35 1007.3
20260503213105 11 0 0.0 9.7 0.00 0.00 0.00 35 1007.3
20260503211555 11 0 0.0 14.5 0.00 0.00 0.00 36 1007.3
20260503210057 11 0 1.6 14.5 0.00 0.00 0.00 38 1007.4
20260503204554 11 0 0.0 11.3 0.00 0.00 0.00 37 1007.6
20260503203056 11 0 0.0 6.4 0.00 0.00 0.00 39 1007.6
20260503201552 11 0 1.6 12.9 0.00 0.00 0.00 37 1007.8
20260503200057 11 0 1.6 17.7 0.00 0.00 0.00 37 1007.7
20260503194554 11 0 0.0 11.3 0.00 0.00 0.00 38 1007.8
20260503193055 11 0 0.0 12.9 0.00 0.00 0.00 40 1008.1
20260503191601 11 0 0.0 6.4 0.00 0.00 0.00 40 1008.3
20260503190052 10 204 0.0 12.9 0.00 0.00 0.00 40 1008.2
20260503184557 10 0 0.0 1.6 0.00 0.00 0.00 43 1008.5
20260503183110 10 0 0.0 8.0 0.00 0.00 0.00 43 1008.7
20260503181555 10 0 0.0 20.9 0.00 0.00 0.00 43 1008.8
20260503180053 10 0 0.0 0.0 0.00 0.00 0.00 44 1008.8
20260503174551 9 0 0.0 0.0 0.00 0.00 0.00 44 1008.8
20260503173113 9 0 0.0 17.7 0.00 0.00 0.00 45 1009.0
20260503171550 9 0 0.0 11.3 0.00 0.00 0.00 43 1008.9
20260503120109 6 0 0.0 0.0 0.00 0.00 0.00 72 1010.1